EW3804 Weather Reports


time (UTC)temp
F
wind
direction
speed
knots
gust
knots
rain 1hr
in
rain 24hr
in
rain mn
in
humidity
%
barometer
mb
20260506164614 60 39 0.0 0.0 0.00 0.00 0.00 88 1004.3
20260506163103 58 77 0.0 0.0 0.00 0.00 0.00 90 1004.7
20260506161557 56 40 0.0 0.0 0.00 0.00 0.00 89 1005.9
20260506160107 57 51 0.0 0.0 0.00 0.00 0.00 88 1006.0
20260506154555 57 10 0.0 0.0 0.00 0.00 0.00 88 1006.6
20260506153055 56 335 0.0 0.0 0.00 0.00 0.00 90 1006.4
20260506151553 56 15 0.0 0.0 0.00 0.00 0.00 90 1006.7
20260506150050 57 349 0.0 0.0 0.00 0.00 0.00 90 1006.2
20260506144546 58 320 0.0 0.0 0.00 0.00 0.00 88 1006.0
20260506143043 58 323 0.0 0.0 0.00 0.00 0.00 88 1005.6
20260506141556 59 329 0.0 0.0 0.00 0.00 0.00 89 1005.8
20260506140039 59 1 0.0 0.0 0.00 0.00 0.00 90 1004.8
20260506134533 59 15 0.0 0.0 0.00 0.00 0.00 91 1004.3
20260506133033 60 96 0.0 0.0 0.00 0.00 0.00 91 1004.2
20260506131536 60 308 0.0 0.0 0.00 0.00 0.00 92 1004.1
20260506130028 0 0.0 0.0 0.00 0.00 0.00 1003.8
20260506124524 0 0.0 0.0 0.00 0.00 0.00 1003.6
20260506123021 0 0.0 0.0 0.00 0.00 0.00 1003.3
20260506121516 0 0.0 0.0 0.00 0.00 0.00 1003.1
20260506120008 0 0.0 0.0 0.00 0.00 0.00 1002.8
20260506114504 0 0.0 0.0 0.00 0.00 0.00 1002.5
20260506113002 0 0.0 0.0 0.00 0.00 0.00 1002.5
20260506111558 0 0.0 0.0 0.00 0.00 0.00 1002.4
20260506110054 0 0.0 0.0 0.00 0.00 0.00 1002.1
20260506104548 0 0.0 0.0 0.00 0.00 0.00 1001.9
20260506103043 0 0.0 0.0 0.00 0.00 0.00 1001.6
20260506101539 0 0.0 0.0 0.00 0.00 0.00 1001.2
20260506100035 0 0.0 0.0 0.00 0.00 0.00 1001.1
20260506094536 70 313 0.0 0.0 0.00 0.00 0.00 84 1000.7
20260506093041 71 312 0.0 5.2 0.00 0.00 0.00 83 1000.7
20260506091525 74 198 0.0 4.3 0.00 0.00 0.00 93 1000.6
20260506090025 74 169 0.0 3.5 0.00 0.00 0.00 92 1000.4
20260506084523 74 150 0.0 0.0 0.00 0.00 0.00 92 1000.5
20260506083023 74 143 0.0 5.2 0.00 0.00 0.00 92 1000.3
20260506081522 75 114 0.0 3.5 0.00 0.00 0.00 92 1000.3
20260506073020 75 147 0.0 0.0 0.00 0.00 0.00 91 1000.6
20260506071519 75 174 0.0 0.0 0.00 0.00 0.00 91 1000.7
20260506061516 75 178 0.0 1.7 0.00 0.00 0.00 92 1000.5
20260506044503 75 157 0.0 0.0 0.00 0.00 0.00 91 999.8
20260506043006 75 153 0.0 0.0 0.00 0.00 0.00 90 999.9
20260506041502 76 150 0.0 2.6 0.00 0.00 0.00 89 999.9
20260506040003 76 147 2.6 7.0 0.00 0.00 0.00 89 999.8
20260506034600 76 83 0.0 5.2 0.00 0.00 0.00 88 999.4
20260506033110 76 160 0.0 3.5 0.00 0.00 0.00 88 999.3
20260506031603 76 170 0.0 3.5 0.00 0.00 0.00 87 999.2
20260506030113 76 150 0.0 1.7 0.00 0.00 0.00 87 998.6
20260506024558 77 134 0.0 0.0 0.00 0.00 0.00 86 998.4
20260506023057 77 149 0.0 0.0 0.00 0.00 0.00 85 998.2
20260506021603 77 117 0.0 0.0 0.00 0.00 0.00 85 997.9
20260506020056 77 143 0.0 0.0 0.00 0.00 0.00 84 997.9
20260506014601 78 135 0.0 0.0 0.00 0.00 0.00 83 997.7
20260506013055 78 164 0.0 3.5 0.00 0.00 0.00 82 997.5
20260506011558 79 130 0.0 1.7 0.00 0.00 0.00 81 997.5
20260506010058 80 158 0.0 3.5 0.00 0.00 0.00 80 997.4
20260506004624 80 141 0.0 3.5 0.00 0.00 0.00 78 997.3
20260506003052 81 161 0.0 4.3 0.00 0.00 0.00 76 997.2
20260506001552 83 172 0.0 0.0 0.00 0.00 0.00 74 997.4
20260506000051 83 122 0.0 3.5 0.00 0.00 0.00 74 997.5
20260505234611 83 175 0.0 1.7 0.00 0.00 0.00 73 997.3
20260505233049 84 159 0.0 3.5 0.00 0.00 0.00 72 997.2
20260505231550 83 213 0.0 6.1 0.00 0.00 0.00 73 997.2
20260505230051 84 101 0.0 6.1 0.00 0.00 0.00 71 997.1
20260505224550 84 159 0.0 0.0 0.00 0.00 0.00 71 997.2
20260505223059 84 155 0.0 3.5 0.00 0.00 0.00 71 997.2
20260505221558 84 98 0.0 0.0 0.00 0.00 0.00 71 997.0
20260505220057 84 155 0.0 3.5 0.00 0.00 0.00 72 997.0
20260505214556 85 139 0.0 2.6 0.00 0.00 0.00 70 997.1
20260505213045 85 140 0.0 7.8 0.00 0.00 0.00 69 997.4
20260505211540 85 167 0.0 3.5 0.00 0.00 0.00 70 997.5
20260505210038 85 186 0.0 7.0 0.00 0.00 0.00 69 997.7
20260505204535 85 205 1.7 7.8 0.00 0.00 0.00 69 998.0
20260505203036 85 216 0.9 8.7 0.00 0.00 0.00 68 998.1
20260505201533 85 178 0.0 2.6 0.00 0.00 0.00 69 998.0
20260505200036 85 150 0.0 7.8 0.00 0.00 0.00 69 998.2
20260505194530 85 191 0.0 5.2 0.00 0.00 0.00 69 998.4
20260505193027 84 151 0.0 5.2 0.00 0.00 0.00 70 998.5
20260505191526 83 193 0.0 0.0 0.00 0.00 0.00 71 998.5
20260505190024 83 135 0.0 0.0 0.00 0.00 0.00 71 998.5
20260505184527 83 184 0.0 0.0 0.00 0.00 0.00 71 998.6
20260505183039 83 186 0.0 0.0 0.00 0.00 0.00 72 998.8
20260505181522 82 185 0.0 0.0 0.00 0.00 0.00 73 999.3
20260505180019 82 110 0.0 0.0 0.00 0.00 0.00 72 999.3
20260505174517 82 181 0.0 3.5 0.00 0.00 0.00 73 999.5
20260505173021 81 157 0.0 0.0 0.00 0.00 0.00 74 999.8
20260505171516 81 152 0.0 5.2 0.00 0.00 0.00 73 999.8
20260505170012 80 148 0.0 0.0 0.00 0.00 0.00 74 999.8